Flag for Poland Weather past 2 weeks in Rzeszów, Poland

Now
39 °F

Fog.


Feels Like: 37 °F
Forecast: 32 / 47 °F
Wind: 3 mph from Southeast

Location: Rzeszow-Jasionka

Current Time: Feb 27, 2015 at 7:20:15 AM

Latest Report: Feb 27, 2015 at 7:00 AM


Visibility: 0 mi

Pressure: 30.01 "Hg

Humidity: 100%

Dew point: 39 °F

Location of RzeszówLocation

Historic Weather in Rzeszów — Graph

°F

Rzeszów temperature yesterday

Maximum temperature yesterday: 43 °F (at 10:30 AM)
Minimum temperature yesterday: 39 °F (at 1:30 AM)
Average temperature yesterday: 41 °F

Past Weeks' High & Low Weather Summary

 TemperatureHumidityPressure
High54 °F (Feb 22, 1:30 PM)100% (Feb 13, 4:30 AM)30.69 "Hg (Feb 13, 4:30 AM)
Low14 °F (Feb 18, 5:30 AM)32% (Feb 14, 1:00 PM)29.62 "Hg (Feb 23, 5:00 PM)
Average37 °F76%30.13 "Hg
* Reported Feb 12 6:00 AM — Feb 27 6:00 AM, Rzeszów, Weather by CustomWeather, © 2015

Note: Actual official high and low records may vary slightly from our data, if they occured in-between our weather recording intervals... More about our weather records

Advertising

Rzeszów weather history for previous 24 hours

 ConditionsComfort  
Time TempWeatherWind HumidityBarometerVisibility
6:00 AM
Fri, Feb 27
39 °FFog.3 mph100%29.98 "Hg1 mi
5:30 AM39 °FFog.2 mph100%30.01 "Hg1 mi
4:30 AM39 °FFog.No wind100%30.01 "Hg1 mi
4:00 AM39 °FFog.No wind100%30.01 "Hg1 mi
3:30 AM39 °FFog.No wind100%30.01 "Hg1 mi
3:00 AM39 °FFog.2 mph100%30.01 "Hg1 mi
2:30 AM39 °FFog.2 mph100%30.01 "Hg0 mi
2:00 AM39 °FFog.2 mph93%30.01 "Hg1 mi
1:30 AM39 °FFog.2 mph100%30.04 "Hg0 mi
1:00 AM39 °FFog.2 mph93%30.04 "Hg0 mi
12:30 AM39 °FFog.1 mph100%30.04 "Hg0 mi
12:00 AM39 °FFog.2 mph100%30.04 "Hg1 mi
11:30 PM
Thu, Feb 26
41 °FLight rain. Fog.2 mph93%30.07 "Hg1 mi
11:00 PM41 °FLight rain. Fog.2 mph93%30.07 "Hg1 mi
10:00 PM41 °FLight rain. Fog.3 mph93%30.07 "Hg1 mi
9:30 PM41 °FLight rain. Fog.3 mph93%30.07 "Hg1 mi
9:00 PM41 °FLight rain. Fog.3 mph93%30.07 "Hg1 mi
8:30 PM41 °FLight rain. Fog.3 mph93%30.07 "Hg1 mi
8:00 PM41 °FLight rain. Fog.3 mph93%30.07 "Hg2 mi
7:30 PM41 °FLight rain. Fog.6 mph93%30.07 "Hg3 mi
7:00 PM41 °FLight rain. Overcast.3 mph93%30.09 "Hg4 mi
6:30 PM41 °FOvercast.2 mph93%30.09 "Hg5 mi
6:00 PM41 °FOvercast.3 mph93%30.09 "HgN/A
5:30 PM43 °FOvercast.3 mph87%30.09 "HgN/A
5:00 PM43 °FOvercast.5 mph87%30.09 "HgN/A
4:30 PM43 °FOvercast.5 mph87%30.07 "HgN/A
4:00 PM43 °FOvercast.3 mph87%30.07 "HgN/A
3:30 PM43 °FMore clouds than sun.7 mph87%30.07 "HgN/A
3:00 PM43 °FOvercast.7 mph87%30.07 "HgN/A
2:30 PM43 °FOvercast.7 mph81%30.07 "HgN/A
2:00 PM43 °FOvercast.8 mph87%30.09 "HgN/A
1:30 PM43 °FMore clouds than sun.7 mph87%30.09 "HgN/A
1:00 PM43 °FOvercast.8 mph87%30.09 "HgN/A
12:30 PM41 °FOvercast.8 mph87%30.09 "HgN/A
12:00 PM43 °FMostly cloudy.9 mph81%30.09 "HgN/A
11:30 AM43 °FMostly cloudy.9 mph87%30.09 "HgN/A
11:00 AM43 °FMostly cloudy.9 mph87%30.09 "HgN/A
10:30 AM43 °FMostly cloudy.7 mph87%30.09 "Hg5 mi
10:00 AM41 °FCloudy.7 mph93%30.09 "Hg4 mi
9:30 AM41 °FMore clouds than sun.6 mph93%30.09 "Hg4 mi
9:00 AM41 °FMore clouds than sun.6 mph93%30.09 "Hg4 mi
8:30 AM39 °FLight rain. Overcast.6 mph100%30.09 "Hg4 mi
8:00 AM39 °FLight rain. Overcast.6 mph100%30.09 "Hg4 mi
7:00 AM39 °FLight rain. Fog.7 mph100%30.09 "Hg3 mi
Weather by CustomWeather, © 2015

See weather overviewHow to use our weather pages